Location: Augustenthal
(51.7167°N, 10.2833°E)
Time: 03:43:06
(UTC+00:00)

NOSS 2-1 (E) - Pass Details

Date: 18 May 2021
Orbit: 431 x 1770 km, 63.3° (Epoch: 19 May)

Event Time Altitude Azimuth Distance (km) Brightness Sun altitude
Rises 21:18:22 0° 315° (NW) 2,786 8.5 -14.1°
Reaches altitude 10° 21:20:20 10° 320° (NW) 2,011 7.5 -14.2°
Maximum altitude 21:24:49 58° 40° (NE) 904 4.5 -14.6°
Enters shadow 21:30:12 14° 117° (ESE) 2,467 6.1 -14.9°
